owner,sensor,date,latitude,longitude,vertical_datum,wind_speed,wind_to_direction,wind_speed_of_gust,qcFlag 
DISL,ioos:station:DISL:PPTA:1,2013-01-01T00:00:00Z,30.2791,-87.5561,0.0,2.8,47.0,99.0,'11111222,11111222,11144222' 
DISL,ioos:station:DISL:PPTA:1,2013-01-01T00:30:00Z,30.2791,-87.5561,0.0,3.3,50.0,99.0,'11111222,11111222,11144222' 
DISL,ioos:station:DISL:PPTA:1,2013-01-01T01:00:00Z,30.2791,-87.5561,0.0,3.3,59.0,99.0,'11111222,11111222,11144222' 
DISL,ioos:station:DISL:PPTA:1,2013-01-01T01:30:00Z,30.2791,-87.5561,0.0,2.4,54.0,99.0,'11111222,11111222,11144222' 
DISL,ioos:station:DISL:PPTA:1,2013-01-01T02:00:00Z,30.2791,-87.5561,0.0,2.6,61.0,99.0,'11111222,11111222,11144222' 
DISL,ioos:station:DISL:PPTA:1,2013-01-01T02:30:00Z,30.2791,-87.5561,0.0,2.0,35.0,99.0,'11111222,11111222,11144222' 
DISL,ioos:station:DISL:PPTA:1,2013-01-01T03:00:00Z,30.2791,-87.5561,0.0,2.0,55.0,99.0,'11111222,11111222,11144222' 
DISL,ioos:station:DISL:PPTA:1,2013-01-01T03:30:00Z,30.2791,-87.5561,0.0,1.9,61.0,99.0,'11111222,11111222,11144222' 
DISL,ioos:station:DISL:PPTA:1,2013-01-01T04:00:00Z,30.2791,-87.5561,0.0,4.2,76.0,99.0,'11111222,11111222,11144222' 
DISL,ioos:station:DISL:PPTA:1,2013-01-01T04:30:00Z,30.2791,-87.5561,0.0,4.7,80.0,99.0,'11111222,11111222,11144222' 
DISL,ioos:station:DISL:PPTA:1,2013-01-01T05:00:00Z,30.2791,-87.5561,0.0,2.8,62.0,99.0,'11111222,11111222,11144222' 
DISL,ioos:station:DISL:PPTA:1,2013-01-01T05:30:00Z,30.2791,-87.5561,0.0,4.2,86.0,99.0,'11111222,11111222,11144222' 
DISL,ioos:station:DISL:PPTA:1,2013-01-01T06:00:00Z,30.2791,-87.5561,0.0,3.0,96.0,99.0,'11111222,11111222,11144222' 
DISL,ioos:station:DISL:PPTA:1,2013-01-01T06:30:00Z,30.2791,-87.5561,0.0,1.78,114.6,-9999.0,'1111122,1111122,1111122' 
DISL,ioos:station:DISL:PPTA:1,2013-01-01T07:00:00Z,30.2791,-87.5561,0.0,1.13,157.3,-9999.0,'1111122,1111122,1111122' 
DISL,ioos:station:DISL:PPTA:1,2013-01-01T07:30:00Z,30.2791,-87.5561,0.0,1.98,164.9,-9999.0,'1111122,1111122,1111122' 
DISL,ioos:station:DISL:PPTA:1,2013-01-01T08:00:00Z,30.2791,-87.5561,0.0,4.07,161.5,-9999.0,'1111122,1111122,1111122' 
DISL,ioos:station:DISL:PPTA:1,2013-01-01T08:30:00Z,30.2791,-87.5561,0.0,3.41,164.8,-9999.0,'1111122,1111122,1111122' 
DISL,ioos:station:DISL:PPTA:1,2013-01-01T09:00:00Z,30.2791,-87.5561,0.0,4.46,163.8,-9999.0,'1111122,1111122,1111122' 
DISL,ioos:station:DISL:PPTA:1,2013-01-01T09:30:00Z,30.2791,-87.5561,0.0,4.53,163.7,-9999.0,'1111122,1111122,1111122' 
DISL,ioos:station:DISL:PPTA:1,2013-01-01T10:00:00Z,30.2791,-87.5561,0.0,4.52,166.6,-9999.0,'1111122,1111122,1111122' 
DISL,ioos:station:DISL:PPTA:1,2013-01-01T10:30:00Z,30.2791,-87.5561,0.0,3.48,167.7,-9999.0,'1111122,1111122,1111122' 
DISL,ioos:station:DISL:PPTA:1,2013-01-01T11:00:00Z,30.2791,-87.5561,0.0,2.47,170.9,-9999.0,'1111122,1111122,1111122' 
DISL,ioos:station:DISL:PPTA:1,2013-01-01T11:30:00Z,30.2791,-87.5561,0.0,1.51,179.1,-9999.0,'1111122,1111122,1111122' 
DISL,ioos:station:DISL:PPTA:1,2013-01-01T12:00:00Z,30.2791,-87.5561,0.0,1.49,175.2,-9999.0,'1111122,1111122,1111122' 
DISL,ioos:station:DISL:PPTA:1,2013-01-01T12:30:00Z,30.2791,-87.5561,0.0,2.36,176.7,-9999.0,'1111122,1111122,1111122' 
DISL,ioos:station:DISL:PPTA:1,2013-01-01T13:00:00Z,30.2791,-87.5561,0.0,1.28,175.9,-9999.0,'1111122,1111122,1111122' 
DISL,ioos:station:DISL:PPTA:1,2013-01-01T13:30:00Z,30.2791,-87.5561,0.0,2.33,179.1,-9999.0,'1111122,1111122,1111122' 
DISL,ioos:station:DISL:PPTA:1,2013-01-01T14:00:00Z,30.2791,-87.5561,0.0,2.38,175.5,-9999.0,'1111122,1111122,1111122' 
DISL,ioos:station:DISL:PPTA:1,2013-01-01T14:30:00Z,30.2791,-87.5561,0.0,2.82,172.2,-9999.0,'1111122,1111122,1111122' 
DISL,ioos:station:DISL:PPTA:1,2013-01-01T15:00:00Z,30.2791,-87.5561,0.0,2.55,172.6,-9999.0,'1111122,1111122,1111122' 
DISL,ioos:station:DISL:PPTA:1,2013-01-01T15:30:00Z,30.2791,-87.5561,0.0,1.57,175.3,-9999.0,'1111122,1111122,1111122' 
DISL,ioos:station:DISL:PPTA:1,2013-01-01T16:00:00Z,30.2791,-87.5561,0.0,2.38,177.5,-9999.0,'1111122,1111122,1111122' 
DISL,ioos:station:DISL:PPTA:1,2013-01-01T16:30:00Z,30.2791,-87.5561,0.0,1.44,171.3,-9999.0,'1111122,1111122,1111122' 
DISL,ioos:station:DISL:PPTA:1,2013-01-01T17:00:00Z,30.2791,-87.5561,0.0,1.56,172.8,-9999.0,'1111122,1111122,1111122' 
DISL,ioos:station:DISL:PPTA:1,2013-01-01T17:30:00Z,30.2791,-87.5561,0.0,1.5,167.2,-9999.0,'1111122,1111122,1111122' 
DISL,ioos:station:DISL:PPTA:1,2013-01-01T18:00:00Z,30.2791,-87.5561,0.0,1.11,157.6,-9999.0,'1111122,1111122,1111122' 
DISL,ioos:station:DISL:PPTA:1,2013-01-01T18:30:00Z,30.2791,-87.5561,0.0,1.07,163.5,-9999.0,'1111122,1111122,1111122' 
DISL,ioos:station:DISL:PPTA:1,2013-01-01T19:00:00Z,30.2791,-87.5561,0.0,1.81,172.8,-9999.0,'1111122,1111122,1111122' 
DISL,ioos:station:DISL:PPTA:1,2013-01-01T19:30:00Z,30.2791,-87.5561,0.0,2.89,169.2,-9999.0,'1111122,1111122,1111122' 
DISL,ioos:station:DISL:PPTA:1,2013-01-01T20:00:00Z,30.2791,-87.5561,0.0,5.01,194.9,-9999.0,'1111122,1111122,1111122' 
DISL,ioos:station:DISL:PPTA:1,2013-01-01T20:30:00Z,30.2791,-87.5561,0.0,2.75,181.3,-9999.0,'1111122,1111122,1111122' 
DISL,ioos:station:DISL:PPTA:1,2013-01-01T21:00:00Z,30.2791,-87.5561,0.0,2.92,178.7,-9999.0,'1111122,1111122,1111122' 
DISL,ioos:station:DISL:PPTA:1,2013-01-01T21:30:00Z,30.2791,-87.5561,0.0,2.86,176.9,-9999.0,'1111122,1111122,1111122' 
DISL,ioos:station:DISL:PPTA:1,2013-01-01T22:00:00Z,30.2791,-87.5561,0.0,2.89,177.5,-9999.0,'1111122,1111122,1111122' 
DISL,ioos:station:DISL:PPTA:1,2013-01-01T22:30:00Z,30.2791,-87.5561,0.0,2.79,177.1,-9999.0,'1111122,1111122,1111122' 
DISL,ioos:station:DISL:PPTA:1,2013-01-01T23:00:00Z,30.2791,-87.5561,0.0,1.8,179.2,-9999.0,'1111122,1111122,1111122' 
DISL,ioos:station:DISL:PPTA:1,2013-01-01T23:30:00Z,30.2791,-87.5561,0.0,1.55,183.2,-9999.0,'1111122,1111122,1111122' 
DISL,ioos:station:DISL:PPTA:1,2013-01-02T00:00:00Z,30.2791,-87.5561,0.0,1.58,172.0,-9999.0,'1111122,1111122,1111122' 
DISL,ioos:station:DISL:PPTA:1,2013-01-02T00:30:00Z,30.2791,-87.5561,0.0,1.56,180.1,-9999.0,'1111122,1111122,1111122' 
DISL,ioos:station:DISL:PPTA:1,2013-01-02T01:00:00Z,30.2791,-87.5561,0.0,1.17,173.7,-9999.0,'1111122,1111122,1111122' 
DISL,ioos:station:DISL:PPTA:1,2013-01-02T01:30:00Z,30.2791,-87.5561,0.0,1.75,174.9,-9999.0,'1111122,1111122,1111122' 
DISL,ioos:station:DISL:PPTA:1,2013-01-02T02:00:00Z,30.2791,-87.5561,0.0,1.77,182.3,-9999.0,'1111122,1111122,1111122' 
DISL,ioos:station:DISL:PPTA:1,2013-01-02T02:30:00Z,30.2791,-87.5561,0.0,1.49,184.4,-9999.0,'1111122,1111122,1111122' 
DISL,ioos:station:DISL:PPTA:1,2013-01-02T03:00:00Z,30.2791,-87.5561,0.0,1.04,203.8,-9999.0,'1111122,1111122,1111122' 
DISL,ioos:station:DISL:PPTA:1,2013-01-02T03:30:00Z,30.2791,-87.5561,0.0,2.95,178.5,-9999.0,'1111122,1111122,1111122' 
DISL,ioos:station:DISL:PPTA:1,2013-01-02T04:00:00Z,30.2791,-87.5561,0.0,3.64,222.5,-9999.0,'1111122,1111122,1111122' 
DISL,ioos:station:DISL:PPTA:1,2013-01-02T04:30:00Z,30.2791,-87.5561,0.0,2.65,237.9,-9999.0,'1111122,1111122,1111122' 
DISL,ioos:station:DISL:PPTA:1,2013-01-02T05:00:00Z,30.2791,-87.5561,0.0,4.23,256.5,-9999.0,'1111122,1111122,1111122' 
DISL,ioos:station:DISL:PPTA:1,2013-01-02T05:30:00Z,30.2791,-87.5561,0.0,3.42,262.4,-9999.0,'1111122,1111122,1111122' 
DISL,ioos:station:DISL:PPTA:1,2013-01-02T06:00:00Z,30.2791,-87.5561,0.0,5.96,324.3,-9999.0,'1111122,1111122,1111122' 
DISL,ioos:station:DISL:PPTA:1,2013-01-02T06:30:00Z,30.2791,-87.5561,0.0,5.46,346.2,-9999.0,'1111122,1111122,1111122' 
DISL,ioos:station:DISL:PPTA:1,2013-01-02T07:00:00Z,30.2791,-87.5561,0.0,5.04,336.1,-9999.0,'1111122,1111122,1111122' 
DISL,ioos:station:DISL:PPTA:1,2013-01-02T07:30:00Z,30.2791,-87.5561,0.0,4.24,346.7,-9999.0,'1111122,1111122,1111122' 
DISL,ioos:station:DISL:PPTA:1,2013-01-02T08:00:00Z,30.2791,-87.5561,0.0,5.45,339.7,-9999.0,'1111122,1111122,1111122' 
DISL,ioos:station:DISL:PPTA:1,2013-01-02T08:30:00Z,30.2791,-87.5561,0.0,5.01,343.4,-9999.0,'1111122,1111122,1111122' 
DISL,ioos:station:DISL:PPTA:1,2013-01-02T09:00:00Z,30.2791,-87.5561,0.0,5.78,342.2,-9999.0,'1111122,1111122,1111122' 
DISL,ioos:station:DISL:PPTA:1,2013-01-02T09:30:00Z,30.2791,-87.5561,0.0,5.17,356.5,-9999.0,'1111122,1111122,1111122' 
DISL,ioos:station:DISL:PPTA:1,2013-01-02T10:00:00Z,30.2791,-87.5561,0.0,5.13,347.6,-9999.0,'1111122,1111122,1111122' 
DISL,ioos:station:DISL:PPTA:1,2013-01-02T10:30:00Z,30.2791,-87.5561,0.0,5.85,353.1,-9999.0,'1111122,1111122,1111122' 
DISL,ioos:station:DISL:PPTA:1,2013-01-02T11:00:00Z,30.2791,-87.5561,0.0,5.71,343.6,-9999.0,'1111122,1111122,1111122' 
DISL,ioos:station:DISL:PPTA:1,2013-01-02T11:30:00Z,30.2791,-87.5561,0.0,5.31,345.2,-9999.0,'1111122,1111122,1111122' 
DISL,ioos:station:DISL:PPTA:1,2013-01-02T12:00:00Z,30.2791,-87.5561,0.0,5.61,349.8,-9999.0,'1111122,1111122,1111122' 
DISL,ioos:station:DISL:PPTA:1,2013-01-02T12:30:00Z,30.2791,-87.5561,0.0,5.26,342.8,-9999.0,'1111122,1111122,1111122' 
DISL,ioos:station:DISL:PPTA:1,2013-01-02T13:00:00Z,30.2791,-87.5561,0.0,5.24,342.4,-9999.0,'1111122,1111122,1111122' 
DISL,ioos:station:DISL:PPTA:1,2013-01-02T13:30:00Z,30.2791,-87.5561,0.0,5.48,353.3,-9999.0,'1111122,1111122,1111122' 
DISL,ioos:station:DISL:PPTA:1,2013-01-02T14:00:00Z,30.2791,-87.5561,0.0,4.94,340.7,-9999.0,'1111122,1111122,1111122' 
DISL,ioos:station:DISL:PPTA:1,2013-01-02T14:30:00Z,30.2791,-87.5561,0.0,5.93,339.5,-9999.0,'1111122,1111122,1111122' 
DISL,ioos:station:DISL:PPTA:1,2013-01-02T15:00:00Z,30.2791,-87.5561,0.0,5.57,359.1,-9999.0,'1111122,1111122,1111122' 
DISL,ioos:station:DISL:PPTA:1,2013-01-02T15:30:00Z,30.2791,-87.5561,0.0,5.01,352.5,-9999.0,'1111122,1111122,1111122' 
DISL,ioos:station:DISL:PPTA:1,2013-01-02T16:00:00Z,30.2791,-87.5561,0.0,4.71,342.8,-9999.0,'1111122,1111122,1111122' 
DISL,ioos:station:DISL:PPTA:1,2013-01-02T16:30:00Z,30.2791,-87.5561,0.0,5.45,356.6,-9999.0,'1111122,1111122,1111122' 
DISL,ioos:station:DISL:PPTA:1,2013-01-02T17:00:00Z,30.2791,-87.5561,0.0,4.76,341.8,-9999.0,'1111122,1111122,1111122' 
DISL,ioos:station:DISL:PPTA:1,2013-01-02T17:30:00Z,30.2791,-87.5561,0.0,4.59,341.8,-9999.0,'1111122,1111122,1111122' 
DISL,ioos:station:DISL:PPTA:1,2013-01-02T18:00:00Z,30.2791,-87.5561,0.0,5.45,343.0,-9999.0,'1111122,1111122,1111122' 
DISL,ioos:station:DISL:PPTA:1,2013-01-02T18:30:00Z,30.2791,-87.5561,0.0,4.61,342.2,-9999.0,'1111122,1111122,1111122' 
DISL,ioos:station:DISL:PPTA:1,2013-01-02T19:00:00Z,30.2791,-87.5561,0.0,5.21,343.4,-9999.0,'1111122,1111122,1111122' 
DISL,ioos:station:DISL:PPTA:1,2013-01-02T19:30:00Z,30.2791,-87.5561,0.0,3.82,346.4,-9999.0,'1111122,1111122,1111122' 
DISL,ioos:station:DISL:PPTA:1,2013-01-02T20:00:00Z,30.2791,-87.5561,0.0,4.33,339.5,-9999.0,'1111122,1111122,1111122' 
DISL,ioos:station:DISL:PPTA:1,2013-01-02T20:30:00Z,30.2791,-87.5561,0.0,4.3,345.1,-9999.0,'1111122,1111122,1111122' 
DISL,ioos:station:DISL:PPTA:1,2013-01-02T21:00:00Z,30.2791,-87.5561,0.0,4.61,348.4,-9999.0,'1111122,1111122,1111122' 
DISL,ioos:station:DISL:PPTA:1,2013-01-02T21:30:00Z,30.2791,-87.5561,0.0,4.45,348.1,-9999.0,'1111122,1111122,1111122' 
DISL,ioos:station:DISL:PPTA:1,2013-01-02T22:00:00Z,30.2791,-87.5561,0.0,4.28,339.6,-9999.0,'1111122,1111122,1111122' 
DISL,ioos:station:DISL:PPTA:1,2013-01-02T22:30:00Z,30.2791,-87.5561,0.0,3.71,335.5,-9999.0,'1111122,1111122,1111122' 
DISL,ioos:station:DISL:PPTA:1,2013-01-02T23:00:00Z,30.2791,-87.5561,0.0,4.09,327.9,-9999.0,'1111122,1111122,1111122' 
DISL,ioos:station:DISL:PPTA:1,2013-01-02T23:30:00Z,30.2791,-87.5561,0.0,5.32,330.1,-9999.0,'1111122,1111122,1111122' 
DISL,ioos:station:DISL:PPTA:1,2013-01-03T00:00:00Z,30.2791,-87.5561,0.0,4.76,346.9,-9999.0,'1111122,1111122,1111122' 
DISL,ioos:station:DISL:PPTA:1,2013-01-03T00:30:00Z,30.2791,-87.5561,0.0,4.33,342.1,-9999.0,'1111122,1111122,1111122' 
DISL,ioos:station:DISL:PPTA:1,2013-01-03T01:00:00Z,30.2791,-87.5561,0.0,5.97,345.3,-9999.0,'1111122,1111122,1111122' 
DISL,ioos:station:DISL:PPTA:1,2013-01-03T01:30:00Z,30.2791,-87.5561,0.0,4.94,338.8,-9999.0,'1111122,1111122,1111122' 
DISL,ioos:station:DISL:PPTA:1,2013-01-03T02:00:00Z,30.2791,-87.5561,0.0,5.77,358.1,-9999.0,'1111122,1111122,1111122' 
DISL,ioos:station:DISL:PPTA:1,2013-01-03T02:30:00Z,30.2791,-87.5561,0.0,5.57,350.2,-9999.0,'1111122,1111122,1111122' 
DISL,ioos:station:DISL:PPTA:1,2013-01-03T03:00:00Z,30.2791,-87.5561,0.0,6.06,350.3,-9999.0,'1111122,1111122,1111122' 
DISL,ioos:station:DISL:PPTA:1,2013-01-03T03:30:00Z,30.2791,-87.5561,0.0,5.81,342.2,-9999.0,'1111122,1111122,1111122' 
DISL,ioos:station:DISL:PPTA:1,2013-01-03T04:00:00Z,30.2791,-87.5561,0.0,5.18,348.0,-9999.0,'1111122,1111122,1111122' 
DISL,ioos:station:DISL:PPTA:1,2013-01-03T04:30:00Z,30.2791,-87.5561,0.0,5.48,356.2,-9999.0,'1111122,1111122,1111122' 
DISL,ioos:station:DISL:PPTA:1,2013-01-03T05:00:00Z,30.2791,-87.5561,0.0,4.53,342.6,-9999.0,'1111122,1111122,1111122' 
DISL,ioos:station:DISL:PPTA:1,2013-01-03T05:30:00Z,30.2791,-87.5561,0.0,5.79,335.9,-9999.0,'1111122,1111122,1111122' 
DISL,ioos:station:DISL:PPTA:1,2013-01-03T06:00:00Z,30.2791,-87.5561,0.0,4.42,349.8,-9999.0,'1111122,1111122,1111122' 
DISL,ioos:station:DISL:PPTA:1,2013-01-03T06:30:00Z,30.2791,-87.5561,0.0,4.0,343.1,-9999.0,'1111122,1111122,1111122' 
DISL,ioos:station:DISL:PPTA:1,2013-01-03T07:00:00Z,30.2791,-87.5561,0.0,4.92,337.1,-9999.0,'1111122,1111122,1111122' 
DISL,ioos:station:DISL:PPTA:1,2013-01-03T07:30:00Z,30.2791,-87.5561,0.0,5.82,339.5,-9999.0,'1111122,1111122,1111122' 
DISL,ioos:station:DISL:PPTA:1,2013-01-03T08:00:00Z,30.2791,-87.5561,0.0,4.43,347.3,-9999.0,'1111122,1111122,1111122' 
DISL,ioos:station:DISL:PPTA:1,2013-01-03T08:30:00Z,30.2791,-87.5561,0.0,3.78,344.4,-9999.0,'1111122,1111122,1111122' 
DISL,ioos:station:DISL:PPTA:1,2013-01-03T09:00:00Z,30.2791,-87.5561,0.0,4.84,1.605,-9999.0,'1111122,1111122,1111122' 
DISL,ioos:station:DISL:PPTA:1,2013-01-03T09:30:00Z,30.2791,-87.5561,0.0,4.86,358.4,-9999.0,'1111122,1111122,1111122' 
DISL,ioos:station:DISL:PPTA:1,2013-01-03T10:00:00Z,30.2791,-87.5561,0.0,4.3,359.6,-9999.0,'1111122,1111122,1111122' 
DISL,ioos:station:DISL:PPTA:1,2013-01-03T10:30:00Z,30.2791,-87.5561,0.0,4.3,351.1,-9999.0,'1111122,1111122,1111122' 
DISL,ioos:station:DISL:PPTA:1,2013-01-03T11:00:00Z,30.2791,-87.5561,0.0,4.36,354.8,-9999.0,'1111122,1111122,1111122' 
DISL,ioos:station:DISL:PPTA:1,2013-01-03T11:30:00Z,30.2791,-87.5561,0.0,4.46,341.3,-9999.0,'1111122,1111122,1111122' 
DISL,ioos:station:DISL:PPTA:1,2013-01-03T12:00:00Z,30.2791,-87.5561,0.0,5.09,346.0,-9999.0,'1111122,1111122,1111122' 
DISL,ioos:station:DISL:PPTA:1,2013-01-03T12:30:00Z,30.2791,-87.5561,0.0,4.64,350.1,-9999.0,'1111122,1111122,1111122' 
DISL,ioos:station:DISL:PPTA:1,2013-01-03T13:00:00Z,30.2791,-87.5561,0.0,5.18,359.8,-9999.0,'1111122,1111122,1111122' 
DISL,ioos:station:DISL:PPTA:1,2013-01-03T13:30:00Z,30.2791,-87.5561,0.0,5.07,345.0,-9999.0,'1111122,1111122,1111122' 
DISL,ioos:station:DISL:PPTA:1,2013-01-03T14:00:00Z,30.2791,-87.5561,0.0,4.14,333.5,-9999.0,'1111122,1111122,1111122' 
DISL,ioos:station:DISL:PPTA:1,2013-01-03T14:30:00Z,30.2791,-87.5561,0.0,5.45,322.4,-9999.0,'1111122,1111122,1111122' 
DISL,ioos:station:DISL:PPTA:1,2013-01-03T15:00:00Z,30.2791,-87.5561,0.0,5.16,13.29,-9999.0,'1111122,1111122,1111122' 
DISL,ioos:station:DISL:PPTA:1,2013-01-03T15:30:00Z,30.2791,-87.5561,0.0,4.73,7.53,-9999.0,'1111122,1111122,1111122' 
DISL,ioos:station:DISL:PPTA:1,2013-01-03T16:00:00Z,30.2791,-87.5561,0.0,5.89,337.0,-9999.0,'1111122,1111122,1111122' 
DISL,ioos:station:DISL:PPTA:1,2013-01-03T16:30:00Z,30.2791,-87.5561,0.0,5.83,346.7,-9999.0,'1111122,1111122,1111122' 
DISL,ioos:station:DISL:PPTA:1,2013-01-03T17:00:00Z,30.2791,-87.5561,0.0,5.6,352.7,-9999.0,'1111122,1111122,1111122' 
DISL,ioos:station:DISL:PPTA:1,2013-01-03T17:30:00Z,30.2791,-87.5561,0.0,5.41,3.235,-9999.0,'1111122,1111122,1111122' 
DISL,ioos:station:DISL:PPTA:1,2013-01-03T18:00:00Z,30.2791,-87.5561,0.0,4.72,338.4,-9999.0,'1111122,1111122,1111122' 
DISL,ioos:station:DISL:PPTA:1,2013-01-03T18:30:00Z,30.2791,-87.5561,0.0,5.23,349.7,-9999.0,'1111122,1111122,1111122' 
DISL,ioos:station:DISL:PPTA:1,2013-01-03T19:00:00Z,30.2791,-87.5561,0.0,5.5,348.9,-9999.0,'1111122,1111122,1111122' 
DISL,ioos:station:DISL:PPTA:1,2013-01-03T19:30:00Z,30.2791,-87.5561,0.0,4.78,356.0,-9999.0,'1111122,1111122,1111122' 
DISL,ioos:station:DISL:PPTA:1,2013-01-03T20:00:00Z,30.2791,-87.5561,0.0,4.3,354.1,-9999.0,'1111122,1111122,1111122' 
DISL,ioos:station:DISL:PPTA:1,2013-01-03T20:30:00Z,30.2791,-87.5561,0.0,4.21,341.8,-9999.0,'1111122,1111122,1111122' 
DISL,ioos:station:DISL:PPTA:1,2013-01-03T21:00:00Z,30.2791,-87.5561,0.0,5.61,349.8,-9999.0,'1111122,1111122,1111122' 
DISL,ioos:station:DISL:PPTA:1,2013-01-03T21:30:00Z,30.2791,-87.5561,0.0,5.06,354.5,-9999.0,'1111122,1111122,1111122' 
DISL,ioos:station:DISL:PPTA:1,2013-01-03T22:00:00Z,30.2791,-87.5561,0.0,4.78,351.5,-9999.0,'1111122,1111122,1111122' 
DISL,ioos:station:DISL:PPTA:1,2013-01-03T22:30:00Z,30.2791,-87.5561,0.0,4.53,2.8,-9999.0,'1111122,1111122,1111122' 
DISL,ioos:station:DISL:PPTA:1,2013-01-03T23:00:00Z,30.2791,-87.5561,0.0,4.79,359.0,-9999.0,'1111122,1111122,1111122' 
DISL,ioos:station:DISL:PPTA:1,2013-01-03T23:30:00Z,30.2791,-87.5561,0.0,4.3,349.1,-9999.0,'1111122,1111122,1111122' 
DISL,ioos:station:DISL:PPTA:1,2013-01-04T00:00:00Z,30.2791,-87.5561,0.0,3.84,348.9,-9999.0,'1111122,1111122,1111122' 
DISL,ioos:station:DISL:PPTA:1,2013-01-04T00:30:00Z,30.2791,-87.5561,0.0,3.23,340.0,-9999.0,'1111122,1111122,1111122' 
DISL,ioos:station:DISL:PPTA:1,2013-01-04T01:00:00Z,30.2791,-87.5561,0.0,4.17,342.4,-9999.0,'1111122,1111122,1111122' 
DISL,ioos:station:DISL:PPTA:1,2013-01-04T01:30:00Z,30.2791,-87.5561,0.0,3.68,346.5,-9999.0,'1111122,1111122,1111122' 
DISL,ioos:station:DISL:PPTA:1,2013-01-04T02:00:00Z,30.2791,-87.5561,0.0,3.46,349.1,-9999.0,'1111122,1111122,1111122' 
DISL,ioos:station:DISL:PPTA:1,2013-01-04T02:30:00Z,30.2791,-87.5561,0.0,3.52,349.7,-9999.0,'1111122,1111122,1111122' 
DISL,ioos:station:DISL:PPTA:1,2013-01-04T03:00:00Z,30.2791,-87.5561,0.0,3.55,358.5,-9999.0,'1111122,1111122,1111122' 
DISL,ioos:station:DISL:PPTA:1,2013-01-04T03:30:00Z,30.2791,-87.5561,0.0,3.39,342.5,-9999.0,'1111122,1111122,1111122' 
DISL,ioos:station:DISL:PPTA:1,2013-01-04T04:00:00Z,30.2791,-87.5561,0.0,3.98,349.0,-9999.0,'1111122,1111122,1111122' 
DISL,ioos:station:DISL:PPTA:1,2013-01-04T04:30:00Z,30.2791,-87.5561,0.0,4.04,357.3,-9999.0,'1111122,1111122,1111122' 
DISL,ioos:station:DISL:PPTA:1,2013-01-04T05:00:00Z,30.2791,-87.5561,0.0,4.26,350.4,-9999.0,'1111122,1111122,1111122' 
DISL,ioos:station:DISL:PPTA:1,2013-01-04T05:30:00Z,30.2791,-87.5561,0.0,4.09,359.6,-9999.0,'1111122,1111122,1111122' 
DISL,ioos:station:DISL:PPTA:1,2013-01-04T06:00:00Z,30.2791,-87.5561,0.0,4.21,347.9,-9999.0,'1111122,1111122,1111122' 
DISL,ioos:station:DISL:PPTA:1,2013-01-04T06:30:00Z,30.2791,-87.5561,0.0,4.82,352.3,-9999.0,'1111122,1111122,1111122' 
DISL,ioos:station:DISL:PPTA:1,2013-01-04T07:00:00Z,30.2791,-87.5561,0.0,4.15,353.2,-9999.0,'1111122,1111122,1111122' 
DISL,ioos:station:DISL:PPTA:1,2013-01-04T07:30:00Z,30.2791,-87.5561,0.0,5.04,0.041,-9999.0,'1111122,1111122,1111122' 
DISL,ioos:station:DISL:PPTA:1,2013-01-04T08:00:00Z,30.2791,-87.5561,0.0,4.67,358.0,-9999.0,'1111122,1111122,1111122' 
DISL,ioos:station:DISL:PPTA:1,2013-01-04T08:30:00Z,30.2791,-87.5561,0.0,4.52,354.2,-9999.0,'1111122,1111122,1111122' 
DISL,ioos:station:DISL:PPTA:1,2013-01-04T09:00:00Z,30.2791,-87.5561,0.0,5.18,353.0,-9999.0,'1111122,1111122,1111122' 
DISL,ioos:station:DISL:PPTA:1,2013-01-04T09:30:00Z,30.2791,-87.5561,0.0,5.04,1.642,-9999.0,'1111122,1111122,1111122' 
DISL,ioos:station:DISL:PPTA:1,2013-01-04T10:00:00Z,30.2791,-87.5561,0.0,5.16,356.8,-9999.0,'1111122,1111122,1111122' 
DISL,ioos:station:DISL:PPTA:1,2013-01-04T10:30:00Z,30.2791,-87.5561,0.0,4.71,355.4,-9999.0,'1111122,1111122,1111122' 
DISL,ioos:station:DISL:PPTA:1,2013-01-04T11:00:00Z,30.2791,-87.5561,0.0,4.35,356.5,-9999.0,'1111122,1111122,1111122' 
DISL,ioos:station:DISL:PPTA:1,2013-01-04T11:30:00Z,30.2791,-87.5561,0.0,4.23,10.41,-9999.0,'1111122,1111122,1111122' 
DISL,ioos:station:DISL:PPTA:1,2013-01-04T12:00:00Z,30.2791,-87.5561,0.0,3.9,19.91,-9999.0,'1111122,1111122,1111122' 
DISL,ioos:station:DISL:PPTA:1,2013-01-04T12:30:00Z,30.2791,-87.5561,0.0,4.24,16.2,-9999.0,'1111122,1111122,1111122' 
DISL,ioos:station:DISL:PPTA:1,2013-01-04T13:00:00Z,30.2791,-87.5561,0.0,4.56,23.06,-9999.0,'1111122,1111122,1111122' 
DISL,ioos:station:DISL:PPTA:1,2013-01-04T13:30:00Z,30.2791,-87.5561,0.0,4.86,17.49,-9999.0,'1111122,1111122,1111122' 
DISL,ioos:station:DISL:PPTA:1,2013-01-04T14:00:00Z,30.2791,-87.5561,0.0,5.2,30.59,-9999.0,'1111122,1111122,1111122' 
DISL,ioos:station:DISL:PPTA:1,2013-01-04T14:30:00Z,30.2791,-87.5561,0.0,5.32,21.12,-9999.0,'1111122,1111122,1111122' 
DISL,ioos:station:DISL:PPTA:1,2013-01-04T15:00:00Z,30.2791,-87.5561,0.0,4.72,7.42,-9999.0,'1111122,1111122,1111122' 
DISL,ioos:station:DISL:PPTA:1,2013-01-04T15:30:00Z,30.2791,-87.5561,0.0,5.08,12.04,-9999.0,'1111122,1111122,1111122' 
DISL,ioos:station:DISL:PPTA:1,2013-01-04T16:00:00Z,30.2791,-87.5561,0.0,4.52,7.308,-9999.0,'1111122,1111122,1111122' 
DISL,ioos:station:DISL:PPTA:1,2013-01-04T16:30:00Z,30.2791,-87.5561,0.0,4.86,15.12,-9999.0,'1111122,1111122,1111122' 
DISL,ioos:station:DISL:PPTA:1,2013-01-04T17:00:00Z,30.2791,-87.5561,0.0,4.52,8.05,-9999.0,'1111122,1111122,1111122' 
DISL,ioos:station:DISL:PPTA:1,2013-01-04T17:30:00Z,30.2791,-87.5561,0.0,4.17,22.62,-9999.0,'1111122,1111122,1111122' 
DISL,ioos:station:DISL:PPTA:1,2013-01-04T18:00:00Z,30.2791,-87.5561,0.0,4.72,17.28,-9999.0,'1111122,1111122,1111122' 
DISL,ioos:station:DISL:PPTA:1,2013-01-04T18:30:00Z,30.2791,-87.5561,0.0,5.75,30.4,-9999.0,'1111122,1111122,1111122' 
DISL,ioos:station:DISL:PPTA:1,2013-01-04T19:00:00Z,30.2791,-87.5561,0.0,4.34,35.41,-9999.0,'1111122,1111122,1111122' 
DISL,ioos:station:DISL:PPTA:1,2013-01-04T19:30:00Z,30.2791,-87.5561,0.0,4.29,25.2,-9999.0,'1111122,1111122,1111122' 
DISL,ioos:station:DISL:PPTA:1,2013-01-04T20:00:00Z,30.2791,-87.5561,0.0,4.35,23.87,-9999.0,'1111122,1111122,1111122' 
DISL,ioos:station:DISL:PPTA:1,2013-01-04T20:30:00Z,30.2791,-87.5561,0.0,2.97,13.76,-9999.0,'1111122,1111122,1111122' 
DISL,ioos:station:DISL:PPTA:1,2013-01-04T21:00:00Z,30.2791,-87.5561,0.0,3.1,43.65,-9999.0,'1111122,1111122,1111122' 
DISL,ioos:station:DISL:PPTA:1,2013-01-04T21:30:00Z,30.2791,-87.5561,0.0,2.47,16.94,-9999.0,'1111122,1111122,1111122' 
DISL,ioos:station:DISL:PPTA:1,2013-01-04T22:00:00Z,30.2791,-87.5561,0.0,3.38,28.84,-9999.0,'1111122,1111122,1111122' 
DISL,ioos:station:DISL:PPTA:1,2013-01-04T22:30:00Z,30.2791,-87.5561,0.0,2.28,20.81,-9999.0,'1111122,1111122,1111122' 
DISL,ioos:station:DISL:PPTA:1,2013-01-04T23:00:00Z,30.2791,-87.5561,0.0,1.57,355.6,-9999.0,'1111122,1111122,1111122' 
DISL,ioos:station:DISL:PPTA:1,2013-01-04T23:30:00Z,30.2791,-87.5561,0.0,1.62,311.1,-9999.0,'1111122,1111122,1111122' 
DISL,ioos:station:DISL:PPTA:1,2013-01-05T00:00:00Z,30.2791,-87.5561,0.0,1.07,303.6,-9999.0,'1111122,1111122,1111122' 
DISL,ioos:station:DISL:PPTA:1,2013-01-05T00:30:00Z,30.2791,-87.5561,0.0,1.48,330.2,-9999.0,'1111122,1111122,1111122' 
DISL,ioos:station:DISL:PPTA:1,2013-01-05T01:00:00Z,30.2791,-87.5561,0.0,1.66,325.7,-9999.0,'1111122,1111122,1111122' 
DISL,ioos:station:DISL:PPTA:1,2013-01-05T01:30:00Z,30.2791,-87.5561,0.0,1.41,322.2,-9999.0,'1111122,1111122,1111122' 
DISL,ioos:station:DISL:PPTA:1,2013-01-05T02:00:00Z,30.2791,-87.5561,0.0,2.29,359.2,-9999.0,'1111122,1111122,1111122' 
DISL,ioos:station:DISL:PPTA:1,2013-01-05T02:30:00Z,30.2791,-87.5561,0.0,1.63,9.86,-9999.0,'1111122,1111122,1111122' 
DISL,ioos:station:DISL:PPTA:1,2013-01-05T03:00:00Z,30.2791,-87.5561,0.0,1.66,336.5,-9999.0,'1111122,1111122,1111122' 
DISL,ioos:station:DISL:PPTA:1,2013-01-05T03:30:00Z,30.2791,-87.5561,0.0,2.85,343.0,-9999.0,'1111122,1111122,1111122' 
DISL,ioos:station:DISL:PPTA:1,2013-01-05T04:00:00Z,30.2791,-87.5561,0.0,2.94,355.7,-9999.0,'1111122,1111122,1111122' 
DISL,ioos:station:DISL:PPTA:1,2013-01-05T04:30:00Z,30.2791,-87.5561,0.0,3.52,22.74,-9999.0,'1111122,1111122,1111122' 